Location: Clanezzo
(45.7500°N, 9.6000°E)
Time: 06:33:16
(UTC+00:00)

Gbstr 26 Del rocket - Pass Details

Date: 27 September 2021
Orbit: 492 x 1263 km, 51.8° (Epoch: 20 October)

Event Time Altitude Azimuth Distance (km) Brightness Sun altitude
Rises 17:34:35 0° 184° (S) 3,719 7.1 -5.2°
Reaches altitude 10° 17:37:45 10° 169° (S) 2,897 6.3 -5.8°
Maximum altitude 17:42:53 22° 123° (ESE) 2,318 5.5 -6.7°
Drops below altitude 10° 17:48:27 10° 78° (ENE) 3,194 6.1 -7.7°
Enters shadow 17:50:02 - 71° (ENE) 3,611 6.4 -7.9°
